Location: Peterborough
(44.3091°N, 78.3197°W)
Time: 17:01:30
(UTC-04:00)

Explorer 7 - Pass Details

Date: 25 March 2023
Orbit: 477 x 653 km, 50.3° (Epoch: 04 June)

Event Time Altitude Azimuth Distance (km) Brightness Sun altitude
Rises 16:26:07 0° 193° (SSW) 2,929 11.1 30.9°
Reaches altitude 10° 16:29:09 10° 174° (S) 1,998 10.1 30.5°
Maximum altitude 16:32:07 17° 133° (SE) 1,551 9.1 30.0°
Drops below altitude 10° 16:35:02 10° 92° (E) 1,939 9.2 29.6°
Sets 16:37:54 0° 73° (ENE) 2,805 9.9 29.1°
